[[{"header":{"parameterUnit":"m.s-1","parameterCategory":1,"la1":30.2991,"la2":30.254,"lo1":-89.0895,"lo2":-89.0444,"dy":0.0017,"dx":0.0017,"nx":28,"ny":28,"refTime":"2024-03-18T03:00:00:Z","depth":0,"parameterNumber":2,"parameterNumberName":"U-component_of_WINDS"},"data":[0,0,0,0,0,0,0,0,0,0,0,0,0,0,0,0,0,0,0,0,0,0,0,0,0,0,0,0,0,0,0,0,0,0,0,0,0,0,0,0,0,0,0,0,0,0,0,0,0,0,0,0,0,0,0,0,0,0,-0.758,-0.7582,0,-0.7736,-0.7738,-0.7739,-0.7755,-0.7753,-0.7752,-0.775,-0.7916,-0.7922,-0.7928,0,0,0,0,0,0,0,0,0,0,0,0,0,-0.7301,-0.7306,-0.758,-0.7582,-0.7584,-0.7735,-0.7738,-0.774,-0.7755,-0.7753,-0.7751,-0.775,-0.7914,-0.7921,-0.7929,0,0,0,0,0,0,0,0,0,0,0,0,0,-0.7436,-0.7308,-0.7579,-0.761,-0.7614,-0.7735,-0.7738,-0.774,-0.7756,-0.7753,-0.7751,-0.7749,-0.7912,-0.7921,-0.793,-0.8033,0,0,-0.7957,-0.7961,0,0,0,0,0,0,0,0,-0.7429,-0.7446,-0.7603,-0.7608,-0.7613,-0.7723,-0.77,-0.7839,-0.7756,-0.7702,-0.775,-0.7747,-0.7855,-0.7868,-0.7903,-0.8041,-0.8048,-0.7958,-0.7963,-0.7967,-0.7969,0,0,0,0,0,0,0,-0.7419,-0.744,-0.7642,-0.7605,-0.7611,-0.7617,-0.7634,-0.7727,-0.779,-0.7707,-0.7708,-0.7726,-0.7857,-0.7894,-0.7907,-0.8051,-0.7957,-0.7965,-0.7971,-0.7974,-0.8283,-0.8285,0,0,0,0,0,0,-0.7403,-0.7432,-0.7637,-0.7646,-0.7512,-0.7624,-0.7643,-0.769,-0.7789,-0.7802,-0.7728,-0.7726,-0.788,-0.7896,-0.7913,-0.8042,-0.7967,-0.7975,-0.798,-0.828,-0.8283,-0.8286,0,0,0,0,0,0,-0.7397,-0.7421,-0.763,-0.754,-0.7567,-0.7631,-0.7685,-0.7695,-0.7732,-0.7805,-0.7817,-0.7754,-0.7879,-0.79,-0.8003,-0.8048,-0.7979,-0.7987,-0.8277,-0.8281,-0.8285,-0.83,0,0,0,0,0,0,-0.7389,-0.7419,-0.7458,-0.754,-0.7571,-0.7717,-0.7688,-0.77,-0.7747,-0.7746,-0.7833,-0.7845,-0.7879,-0.799,-0.8012,-0.8059,-0.7994,-0.8273,-0.8278,-0.8284,-0.8296,-0.8304,-0.8311,0,0,0,0,0,-0.7379,-0.7457,-0.746,-0.7485,-0.7621,-0.7719,-0.7737,-0.7772,-0.775,-0.7791,-0.7838,-0.7843,-0.8038,-0.8,-0.8025,-0.8076,-0.827,-0.8277,-0.8283,-0.8292,-0.8303,-0.8311,0,0,0,0,0,0,-0.7382,-0.7469,-0.7473,-0.7579,-0.7641,-0.7721,-0.7774,-0.7782,-0.7853,-0.7849,-0.7891,-0.7911,-0.8012,-0.8054,-0.8009,-0.8181,-0.8153,-0.8164,-0.8151,-0.8161,-0.8169,-0.8158,-0.8002,0,0,0,0,0,-0.7394,-0.7464,-0.7537,-0.7625,-0.7655,-0.7709,-0.7753,-0.7774,-0.7841,-0.7868,-0.7922,-0.7989,-0.8065,-0.8115,-0.819,-0.8301,-0.8321,-0.8348,-0.8356,-0.8362,-0.8372,-0.8435,-0.8449,-0.8308,-0.8307,-0.8307,0,0,-0.7422,-0.7478,-0.752,-0.7626,-0.7677,-0.7751,-0.7731,-0.781,-0.7866,-0.7881,-0.7981,-0.8023,-0.81,-0.8207,-0.8257,-0.8245,-0.8415,-0.837,-0.8374,-0.8382,-0.8443,-0.8457,-0.8468,-0.8312,-0.8311,-0.831,0,0,-0.751,-0.7558,-0.7637,-0.7687,-0.7763,-0.7798,-0.7816,-0.7895,-0.7923,-0.8023,-0.8036,-0.8103,-0.8234,-0.8289,-0.8333,-0.844,-0.8448,-0.8463,-0.8505,-0.8566,-0.8577,-0.8587,-0.8627,-0.8641,-0.8473,-0.8473,-0.8473,0,-0.7535,-0.7645,-0.7677,-0.7755,-0.7802,-0.7816,-0.7896,-0.7944,-0.8042,-0.8075,-0.8058,-0.8222,-0.8275,-0.8396,-0.8422,-0.8457,-0.8481,-0.8455,-0.8573,-0.8583,-0.8593,-0.8632,-0.8646,-0.8475,-0.8474,-0.8474,-0.8474,0,-0.7673,-0.7749,-0.7803,-0.7894,-0.7947,-0.8027,-0.8072,-0.8122,-0.8138,-0.8175,-0.8278,-0.8341,-0.8428,-0.8458,-0.8475,-0.8582,-0.8572,-0.8563,-0.8536,-0.8608,-0.8645,-0.866,-0.8477,-0.8476,-0.8476,-0.8475,0,0,-0.777,-0.7876,-0.7895,-0.7937,-0.8021,-0.8081,-0.8161,-0.8244,-0.8287,-0.8353,-0.8423,-0.8532,-0.8525,-0.8575,-0.8599,-0.8652,-0.8734,-0.8637,-0.864,-0.8655,-0.8857,-0.8864,-0.8881,-0.8738,-0.8741,-0.8743,-0.8851,0,-0.787,-0.801,-0.8041,-0.8163,-0.8235,-0.8248,-0.8318,-0.8377,-0.8414,-0.8481,-0.8522,-0.8599,-0.8582,-0.8613,-0.8666,-0.8713,-0.8776,-0.8705,-0.8806,-0.8809,-0.8789,-0.89,-0.8908,-0.9007,-0.8866,-0.8868,-0.887,0,-0.8005,-0.8072,-0.8201,-0.8274,-0.8306,-0.8368,-0.8447,-0.851,-0.8578,-0.8601,-0.8656,-0.8674,-0.8759,-0.8725,-0.8844,-0.8795,-0.8838,-0.8867,-0.8872,-0.8885,-0.8846,-0.8918,-0.9039,-0.9055,-0.8893,-0.8891,-0.8889,0,-0.8065,-0.8187,-0.828,-0.8315,-0.8403,-0.8447,-0.8486,-0.8551,-0.8599,-0.8669,-0.8701,-0.8779,-0.8823,-0.8885,-0.8923,-0.8894,-0.904,-0.9009,-0.9064,-0.9063,-0.9097,-0.9094,-0.9229,-0.912,-0.9119,-0.9119,-0.9119,0,-0.8174,-0.8254,-0.8308,-0.8366,-0.8455,-0.8489,-0.8577,-0.8616,-0.8674,-0.8741,-0.8757,-0.882,-0.8866,-0.8935,-0.8966,-0.9061,-0.908,-0.9103,-0.9111,-0.9103,-0.91,-0.9134,-0.9129,-0.9123,-0.9122,-0.9121,-0.9121,0,-0.8258,-0.8298,-0.84,-0.8474,-0.8494,-0.8557,-0.8621,-0.8679,-0.8714,-0.8798,-0.882,-0.8877,-0.8959,-0.9003,-0.9107,-0.9127,-0.9235,-0.9237,-0.9211,-0.9215,-0.9268,-0.9263,-0.9431,-0.9455,-0.9327,-0.9328,-0.9329,0,-0.8327,-0.8387,-0.8467,-0.8511,-0.8551,-0.8623,-0.8671,-0.8707,-0.8757,-0.8838,-0.8886,-0.8969,-0.9038,-0.9169,-0.9221,-0.93,-0.9307,-0.9359,-0.9319,-0.9309,-0.931,-0.9307,-0.9314,-0.9368,-0.9369,-0.937,-0.9371,0,-0.8444,-0.8461,-0.8529,-0.8604,-0.866,-0.8722,-0.8783,-0.8819,-0.8864,-0.892,-0.9004,-0.9056,-0.9161,-0.9244,-0.9327,-0.9369,-0.9379,-0.9382,-0.94,-0.9394,-0.9377,-0.9389,-0.9233,-0.9379,-0.9378,-0.9378,-0.9377,-0.9377,-0.8525,-0.8579,-0.8643,-0.8719,-0.8767,-0.8823,-0.8881,-0.8922,-0.8992,-0.9078,-0.9095,-0.9184,-0.9251,-0.9363,-0.9407,-0.9478,-0.9468,-0.9493,-0.9499,-0.9506,-0.9509,-0.9363,-0.9493,-0.9493,-0.9493,-0.9493,-0.9493,0,-0.8645,-0.8686,-0.8755,-0.8838,-0.8898,-0.8897,-0.8965,-0.9015,-0.9092,-0.9153,-0.9219,-0.9315,-0.9395,-0.9451,-0.9533,-0.9579,-0.9586,-0.96,-0.9598,-0.9608,-0.9513,-0.949,-0.9593,-0.9593,-0.9593,-0.9593,-0.9593,-0.9593,-0.8715,-0.8808,-0.8831,-0.8949,-0.899,-0.9075,-0.9114,-0.9166,-0.9214,-0.932,-0.9386,-0.9421,-0.9481,-0.9566,-0.964,-0.9655,-0.9686,-0.97,-0.9715,-0.9625,-0.9615,-0.9605,-0.9584,-0.9705,-0.9706,-0.9805,-0.9806,-0.9807]},{"header":{"parameterUnit":"m.s-1","parameterCategory":1,"la1":30.2991,"la2":30.254,"lo1":-89.0895,"lo2":-89.0444,"dy":0.0017,"dx":0.0017,"nx":28,"ny":28,"refTime":"2024-03-18T03:00:00:Z","depth":0,"parameterNumber":3,"parameterNumberName":"V-component_of_WINDS"},"data":[0,0,0,0,0,0,0,0,0,0,0,0,0,0,0,0,0,0,0,0,0,0,0,0,0,0,0,0,0,0,0,0,0,0,0,0,0,0,0,0,0,0,0,0,0,0,0,0,0,0,0,0,0,0,0,0,0,0,-7.6374,-7.6376,0,-7.6528,-7.6529,-7.6531,-7.641,-7.6405,-7.64,-7.6395,-7.655,-7.6558,-7.6567,0,0,0,0,0,0,0,0,0,0,0,0,0,-7.5974,-7.5982,-7.6374,-7.6376,-7.6378,-7.6527,-7.653,-7.6532,-7.6411,-7.6405,-7.6399,-7.6393,-7.6547,-7.6557,-7.6568,0,0,0,0,0,0,0,0,0,0,0,0,0,-7.6139,-7.5984,-7.6374,-7.6336,-7.6334,-7.6527,-7.653,-7.6532,-7.6412,-7.6405,-7.6397,-7.639,-7.6543,-7.6556,-7.6569,-7.6807,0,0,-7.661,-7.6616,0,0,0,0,0,0,0,0,-7.613,-7.6154,-7.634,-7.6339,-7.6337,-7.6442,-7.6445,-7.6624,-7.6414,-7.6383,-7.6395,-7.6386,-7.652,-7.6535,-7.658,-7.6814,-7.6821,-7.6611,-7.662,-7.6625,-7.6629,0,0,0,0,0,0,0,-7.6119,-7.6147,-7.6435,-7.6342,-7.6341,-7.631,-7.6325,-7.6478,-7.6493,-7.6385,-7.6376,-7.6396,-7.6518,-7.6568,-7.6583,-7.6823,-7.6611,-7.6623,-7.6631,-7.6636,-7.7258,-7.7267,0,0,0,0,0,0,-7.6111,-7.6138,-7.643,-7.6439,-7.6213,-7.6324,-7.6341,-7.6416,-7.6491,-7.6495,-7.6403,-7.639,-7.6549,-7.6568,-7.6588,-7.6871,-7.6625,-7.6638,-7.6645,-7.725,-7.726,-7.727,0,0,0,0,0,0,-7.6103,-7.6139,-7.6424,-7.6287,-7.6321,-7.6339,-7.6425,-7.6423,-7.6473,-7.6504,-7.6506,-7.6452,-7.6543,-7.6569,-7.6753,-7.6875,-7.6644,-7.6656,-7.724,-7.7253,-7.7265,-7.744,0,0,0,0,0,0,-7.6092,-7.6136,-7.6228,-7.629,-7.6328,-7.6588,-7.6432,-7.6432,-7.6497,-7.6482,-7.6551,-7.6555,-7.6539,-7.6734,-7.6767,-7.6889,-7.6666,-7.7229,-7.7246,-7.7261,-7.7423,-7.7457,-7.7485,0,0,0,0,0,-7.6078,-7.627,-7.6233,-7.6269,-7.6443,-7.6596,-7.6617,-7.6597,-7.6507,-7.6599,-7.6618,-7.6552,-7.6856,-7.6754,-7.679,-7.6918,-7.7222,-7.7241,-7.726,-7.7409,-7.745,-7.7485,0,0,0,0,0,0,-7.6222,-7.6278,-7.6237,-7.6455,-7.6522,-7.6575,-7.669,-7.6641,-7.6734,-7.6716,-7.6685,-7.6701,-7.6895,-7.6924,-7.681,-7.7151,-7.7024,-7.7051,-7.7126,-7.7165,-7.7195,-7.7185,-7.6678,0,0,0,0,0,-7.6279,-7.6399,-7.6441,-7.6629,-7.6664,-7.6672,-7.6737,-7.6716,-7.6783,-7.681,-7.6843,-7.691,-7.702,-7.7094,-7.7197,-7.7426,-7.7439,-7.7531,-7.7563,-7.7588,-7.7612,-7.7735,-7.7777,-7.7332,-7.7332,-7.7332,0,0,-7.6398,-7.6443,-7.6521,-7.6659,-7.6708,-7.6832,-7.6696,-7.6833,-7.6925,-7.683,-7.7007,-7.7034,-7.7106,-7.7314,-7.7407,-7.7344,-7.7738,-7.7613,-7.7633,-7.7643,-7.7759,-7.7801,-7.7839,-7.7345,-7.7343,-7.7341,0,0,-7.6678,-7.6725,-7.6887,-7.6939,-7.7015,-7.7018,-7.7057,-7.7118,-7.7133,-7.7309,-7.7241,-7.7348,-7.7539,-7.7594,-7.7646,-7.7947,-7.7889,-7.7981,-7.8144,-7.8264,-7.8299,-7.833,-7.8438,-7.8477,-7.8004,-7.8005,-7.8005,0,-7.6817,-7.7002,-7.6976,-7.7119,-7.7181,-7.7102,-7.7265,-7.7316,-7.7422,-7.7466,-7.7394,-7.7632,-7.7675,-7.7895,-7.7968,-7.8013,-7.8056,-7.7974,-7.8297,-7.8327,-7.8356,-7.8458,-7.8498,-7.8016,-7.8014,-7.8013,-7.8012,0,-7.7168,-7.7298,-7.7419,-7.7524,-7.76,-7.7752,-7.7748,-7.7828,-7.7799,-7.781,-7.799,-7.8039,-7.8151,-7.8201,-7.8174,-7.8416,-7.8375,-7.8301,-7.8173,-7.8409,-7.8505,-7.8544,-7.8031,-7.8027,-7.8024,-7.8021,0,0,-7.7545,-7.7633,-7.7678,-7.7725,-7.7802,-7.7901,-7.8049,-7.8159,-7.8228,-7.8303,-7.8426,-7.8589,-7.852,-7.858,-7.8558,-7.8664,-7.8899,-7.8576,-7.8577,-7.8635,-7.9169,-7.9225,-7.9271,-7.886,-7.8868,-7.8874,-7.9163,0,-7.7829,-7.8088,-7.8069,-7.8313,-7.8432,-7.8357,-7.8486,-7.8547,-7.8561,-7.8662,-7.8676,-7.8793,-7.8693,-7.8729,-7.883,-7.8849,-7.9006,-7.8827,-7.8974,-7.898,-7.896,-7.9321,-7.9381,-7.9652,-7.92,-7.9206,-7.9211,0,-7.8197,-7.8285,-7.8542,-7.8601,-7.865,-7.8766,-7.8865,-7.8964,-7.9031,-7.9033,-7.91,-7.906,-7.9208,-7.9076,-7.9278,-7.9158,-7.9216,-7.9234,-7.9244,-7.9258,-7.9111,-7.9345,-7.9738,-7.9779,-7.9269,-7.9265,-7.926,0,-7.8446,-7.863,-7.8807,-7.8849,-7.8922,-7.9006,-7.904,-7.9099,-7.9166,-7.9252,-7.9295,-7.9397,-7.9453,-7.9532,-7.952,-7.9425,-7.9727,-7.9593,-7.9732,-7.9733,-7.98,-7.9797,-8.0209,-7.9837,-7.9836,-7.9835,-7.9835,0,-7.8767,-7.8927,-7.892,-7.9029,-7.9206,-7.918,-7.9355,-7.938,-7.9433,-7.9545,-7.9486,-7.9591,-7.9569,-7.9674,-7.9665,-7.9834,-7.986,-7.9865,-7.9861,-7.9871,-7.9871,-7.991,-7.9891,-7.9846,-7.9844,-7.9842,-7.984,0,-7.9077,-7.9078,-7.9267,-7.9321,-7.9338,-7.9466,-7.9511,-7.9614,-7.9621,-7.9764,-7.9795,-7.9808,-7.9928,-7.9924,-8.006,-8.0054,-8.0263,-8.0236,-8.0241,-8.0236,-8.0375,-8.0363,-8.0828,-8.0888,-8.0476,-8.048,-8.0484,0,-7.9282,-7.9403,-7.947,-7.9541,-7.9581,-7.9696,-7.9765,-7.9744,-7.9817,-7.9902,-7.9995,-8.011,-8.0201,-8.0396,-8.0417,-8.052,-8.0496,-8.0652,-8.0512,-8.0518,-8.05,-8.0493,-8.0505,-8.0681,-8.0685,-8.0689,-8.0692,0,-7.9646,-7.9641,-7.9742,-7.9845,-7.9928,-8.0007,-8.0079,-8.0141,-8.0127,-8.0213,-8.0336,-8.0407,-8.0546,-8.0661,-8.076,-8.0793,-8.0742,-8.0736,-8.0774,-8.0786,-8.0784,-8.0788,-8.0317,-8.0726,-8.0722,-8.072,-8.0718,-8.0717,-7.991,-8.0014,-8.0078,-8.0193,-8.0245,-8.0314,-8.0413,-8.0434,-8.0536,-8.0649,-8.063,-8.0768,-8.083,-8.0958,-8.1,-8.1107,-8.1051,-8.1106,-8.112,-8.1134,-8.115,-8.0766,-8.1125,-8.1124,-8.1123,-8.1122,-8.1121,0,-8.0272,-8.0309,-8.0414,-8.0518,-8.0608,-8.0551,-8.0628,-8.0708,-8.083,-8.0893,-8.0984,-8.1125,-8.1235,-8.1265,-8.1371,-8.1451,-8.1429,-8.1479,-8.1474,-8.1482,-8.1194,-8.1151,-8.1495,-8.1495,-8.1495,-8.1495,-8.1494,-8.1494,-8.0471,-8.0644,-8.0647,-8.0845,-8.088,-8.1016,-8.1065,-8.1128,-8.1178,-8.1338,-8.1431,-8.1449,-8.1498,-8.1607,-8.1706,-8.1711,-8.1754,-8.1814,-8.181,-8.154,-8.1503,-8.1467,-8.1427,-8.1823,-8.1823,-8.209,-8.2092,-8.2094]}]]